Time,TemperatureF,DewpointF,PressureIn,WindDirection,WindDirectionDegrees,WindSpeedMPH,WindSpeedGustMPH,Humidity,HourlyPrecipIn,Conditions,Clouds,dailyrainin,SoftwareType,DateUTC
2013-05-03 00:02:00,46.0,44.0,30.08,NE,51,5.0,14.0,91,0.05,,,0.52,,2013-05-03 05:02:00,
2013-05-03 00:12:00,46.0,44.0,30.08,NE,51,5.0,14.0,91,0.05,,,0.52,,2013-05-03 05:12:00,
2013-05-03 00:21:00,46.0,44.0,30.07,ENE,61,3.0,11.0,92,0.06,,,0.53,,2013-05-03 05:21:00,
2013-05-03 00:32:00,46.0,44.0,30.09,NE,43,2.0,11.0,92,0.03,,,0.53,,2013-05-03 05:32:00,
2013-05-03 00:42:00,46.0,44.0,30.09,NE,43,2.0,11.0,92,0.03,,,0.53,,2013-05-03 05:42:00,
2013-05-03 00:52:00,46.0,44.0,30.09,NE,38,4.0,11.0,91,0.01,,,0.53,,2013-05-03 05:52:00,
2013-05-03 01:02:00,46.0,44.0,30.07,NNE,33,5.0,11.0,91,0.00,,,0.53,,2013-05-03 06:02:00,
2013-05-03 01:11:00,46.0,44.0,30.07,NNE,33,5.0,11.0,91,0.00,,,0.53,,2013-05-03 06:11:00,
2013-05-03 01:21:00,46.0,43.0,30.07,NE,55,3.0,9.0,90,0.00,,,0.53,,2013-05-03 06:21:00,
2013-05-03 01:32:00,45.0,43.0,30.07,East,82,4.0,8.0,91,0.01,,,0.54,,2013-05-03 06:32:00,
2013-05-03 01:42:00,45.0,43.0,30.07,East,82,4.0,8.0,91,0.01,,,0.54,,2013-05-03 06:42:00,
2013-05-03 01:51:00,45.0,43.0,30.06,ENE,63,5.0,10.0,92,0.01,,,0.54,,2013-05-03 06:51:00,
2013-05-03 02:01:00,45.0,43.0,30.05,NE,55,3.0,11.0,91,0.01,,,0.54,,2013-05-03 07:01:00,
2013-05-03 02:11:00,45.0,43.0,30.05,NE,55,3.0,11.0,91,0.01,,,0.54,,2013-05-03 07:11:00,
2013-05-03 02:21:00,45.0,43.0,30.05,East,80,5.0,12.0,91,0.01,,,0.54,,2013-05-03 07:21:00,
2013-05-03 02:31:00,44.0,42.0,30.05,East,90,2.0,9.0,91,0.00,,,0.54,,2013-05-03 07:31:00,
2013-05-03 02:42:00,44.0,42.0,30.05,East,90,2.0,9.0,91,0.00,,,0.54,,2013-05-03 07:42:00,
2013-05-03 02:52:00,44.0,42.0,30.04,ENE,58,3.0,8.0,91,0.00,,,0.54,,2013-05-03 07:52:00,
2013-05-03 03:02:00,44.0,42.0,30.03,East,91,4.0,10.0,92,0.00,,,0.54,,2013-05-03 08:02:00,
2013-05-03 03:11:00,44.0,42.0,30.03,East,91,4.0,10.0,92,0.00,,,0.54,,2013-05-03 08:11:00,
2013-05-03 03:21:00,44.0,42.0,30.04,NE,44,2.0,10.0,91,0.00,,,0.54,,2013-05-03 08:21:00,
2013-05-03 03:32:00,44.0,41.0,30.04,North,5,4.0,13.0,90,0.00,,,0.54,,2013-05-03 08:32:00,
2013-05-03 03:42:00,44.0,41.0,30.04,North,5,4.0,13.0,90,0.00,,,0.54,,2013-05-03 08:42:00,
2013-05-03 03:53:00,43.0,40.0,30.03,NE,55,6.0,10.0,90,0.00,,,0.54,,2013-05-03 08:53:00,
2013-05-03 04:01:00,43.0,40.0,30.04,NE,52,3.0,10.0,90,0.00,,,0.54,,2013-05-03 09:01:00,
2013-05-03 04:12:00,43.0,40.0,30.04,NE,52,3.0,10.0,90,0.00,,,0.54,,2013-05-03 09:12:00,
2013-05-03 04:21:00,43.0,40.0,30.04,NE,51,2.0,7.0,90,0.00,,,0.54,,2013-05-03 09:21:00,
2013-05-03 04:32:00,43.0,41.0,30.03,NE,41,4.0,11.0,91,0.00,,,0.54,,2013-05-03 09:32:00,
2013-05-03 04:42:00,43.0,41.0,30.03,NE,41,4.0,11.0,91,0.00,,,0.54,,2013-05-03 09:42:00,
2013-05-03 04:53:00,43.0,40.0,30.03,ENE,57,4.0,11.0,90,0.00,,,0.54,,2013-05-03 09:53:00,
2013-05-03 05:02:00,43.0,40.0,30.02,NE,37,5.0,11.0,90,0.00,,,0.54,,2013-05-03 10:02:00,
2013-05-03 05:12:00,43.0,40.0,30.02,NE,37,5.0,11.0,90,0.00,,,0.54,,2013-05-03 10:12:00,
2013-05-03 05:22:00,43.0,40.0,30.03,NNE,22,2.0,12.0,90,0.00,,,0.54,,2013-05-03 10:22:00,
2013-05-03 05:32:00,42.0,39.0,30.02,NE,51,2.0,14.0,90,0.00,,,0.54,,2013-05-03 10:32:00,
2013-05-03 05:42:00,42.0,39.0,30.02,NE,51,2.0,14.0,90,0.00,,,0.54,,2013-05-03 10:42:00,
2013-05-03 05:52:00,42.0,39.0,30.02,NE,45,4.0,10.0,90,0.00,,,0.54,,2013-05-03 10:52:00,
2013-05-03 06:02:00,42.0,40.0,30.03,ENE,70,2.0,8.0,91,0.00,,,0.54,,2013-05-03 11:02:00,
2013-05-03 06:11:00,42.0,40.0,30.03,ENE,70,2.0,8.0,91,0.00,,,0.54,,2013-05-03 11:11:00,
2013-05-03 06:22:00,42.0,40.0,30.02,East,88,4.0,8.0,91,0.00,,,0.54,,2013-05-03 11:22:00,
2013-05-03 06:32:00,42.0,40.0,30.02,SE,130,1.0,5.0,92,0.00,,,0.54,,2013-05-03 11:32:00,
2013-05-03 06:42:00,42.0,40.0,30.02,SE,130,1.0,5.0,92,0.00,,,0.54,,2013-05-03 11:42:00,
2013-05-03 06:52:00,42.0,40.0,30.02,ENE,60,2.0,5.0,92,0.06,,,0.60,,2013-05-03 11:52:00,
2013-05-03 07:01:00,42.0,40.0,30.01,ENE,78,2.0,5.0,93,0.07,,,0.61,,2013-05-03 12:01:00,
2013-05-03 07:11:00,42.0,40.0,30.01,ENE,78,2.0,5.0,93,0.07,,,0.61,,2013-05-03 12:11:00,
2013-05-03 07:21:00,42.0,40.0,30.01,NE,35,1.0,7.0,94,0.07,,,0.61,,2013-05-03 12:21:00,
2013-05-03 07:32:00,42.0,40.0,30.01,NNE,30,2.0,7.0,94,0.07,,,0.57,,2013-05-03 12:32:00,
2013-05-03 07:42:00,42.0,40.0,30.01,NNE,30,2.0,7.0,94,0.07,,,0.57,,2013-05-03 12:42:00,
2013-05-03 07:52:00,42.0,40.0,30.01,ENE,57,2.0,8.0,94,0.02,,,0.59,,2013-05-03 12:52:00,
2013-05-03 08:01:00,42.0,40.0,30.01,NNE,32,3.0,6.0,94,0.01,,,0.59,,2013-05-03 13:01:00,
2013-05-03 08:11:00,42.0,40.0,30.01,NNE,32,3.0,6.0,94,0.01,,,0.59,,2013-05-03 13:11:00,
2013-05-03 08:22:00,43.0,42.0,30.01,East,90,1.0,4.0,95,0.01,,,0.59,,2013-05-03 13:22:00,
2013-05-03 08:32:00,43.0,41.0,30.00,ESE,123,3.0,9.0,94,0.02,,,0.60,,2013-05-03 13:32:00,
2013-05-03 08:42:00,43.0,41.0,30.00,ESE,123,3.0,9.0,94,0.02,,,0.60,,2013-05-03 13:42:00,
2013-05-03 08:52:00,43.0,41.0,29.99,East,80,4.0,11.0,94,0.01,,,0.60,,2013-05-03 13:52:00,
2013-05-03 09:02:00,43.0,41.0,29.99,NE,41,3.0,11.0,93,0.01,,,0.60,,2013-05-03 14:02:00,
2013-05-03 09:11:00,43.0,41.0,29.99,NE,41,3.0,11.0,93,0.01,,,0.60,,2013-05-03 14:11:00,
2013-05-03 09:22:00,43.0,41.0,29.98,NE,52,4.0,11.0,94,0.01,,,0.60,,2013-05-03 14:22:00,
2013-05-03 09:32:00,44.0,42.0,29.98,ESE,104,3.0,10.0,94,0.00,,,0.60,,2013-05-03 14:32:00,
2013-05-03 09:42:00,44.0,42.0,29.98,ESE,104,3.0,10.0,94,0.00,,,0.60,,2013-05-03 14:42:00,
2013-05-03 09:52:00,44.0,42.0,29.98,West,279,3.0,10.0,94,0.01,,,0.61,,2013-05-03 14:52:00,
2013-05-03 10:01:00,45.0,43.0,29.97,NE,55,4.0,13.0,94,0.01,,,0.61,,2013-05-03 15:01:00,
2013-05-03 10:11:00,45.0,43.0,29.97,NE,55,4.0,13.0,94,0.01,,,0.61,,2013-05-03 15:11:00,
2013-05-03 10:22:00,45.0,44.0,29.97,ESE,117,3.0,11.0,95,0.01,,,0.61,,2013-05-03 15:22:00,
2013-05-03 10:32:00,46.0,45.0,29.97,East,93,3.0,7.0,95,0.01,,,0.61,,2013-05-03 15:32:00,
2013-05-03 10:43:00,46.0,45.0,29.97,East,93,3.0,7.0,95,0.01,,,0.61,,2013-05-03 15:43:00,
2013-05-03 10:53:00,46.0,44.0,29.97,East,86,2.0,8.0,94,0.01,,,0.62,,2013-05-03 15:53:00,
2013-05-03 11:03:00,47.0,46.0,29.97,ESE,121,4.0,9.0,95,0.01,,,0.62,,2013-05-03 16:03:00,
2013-05-03 11:13:00,47.0,46.0,29.97,ESE,121,4.0,9.0,95,0.01,,,0.62,,2013-05-03 16:13:00,
2013-05-03 11:22:00,47.0,45.0,29.97,ESE,114,6.0,12.0,94,0.02,,,0.63,,2013-05-03 16:22:00,
2013-05-03 11:32:00,48.0,46.0,29.96,ESE,115,4.0,11.0,94,0.02,,,0.63,,2013-05-03 16:32:00,
2013-05-03 11:42:00,48.0,46.0,29.96,ESE,115,4.0,11.0,94,0.02,,,0.63,,2013-05-03 16:42:00,
2013-05-03 11:52:00,49.0,48.0,29.96,East,87,2.0,7.0,95,0.02,,,0.64,,2013-05-03 16:52:00,
2013-05-03 12:02:00,49.0,48.0,29.95,East,90,2.0,11.0,95,0.02,,,0.64,,2013-05-03 17:02:00,
2013-05-03 12:12:00,49.0,48.0,29.95,East,90,2.0,11.0,95,0.02,,,0.64,,2013-05-03 17:12:00,
2013-05-03 12:23:00,50.0,49.0,29.95,SSE,150,3.0,12.0,95,0.01,,,0.64,,2013-05-03 17:23:00,
2013-05-03 12:32:00,51.0,49.0,29.94,ESE,119,3.0,11.0,94,0.01,,,0.64,,2013-05-03 17:32:00,
2013-05-03 12:42:00,51.0,49.0,29.94,ESE,119,3.0,11.0,94,0.01,,,0.64,,2013-05-03 17:42:00,
2013-05-03 12:52:00,52.0,50.0,29.93,SSE,155,2.0,9.0,94,0.00,,,0.64,,2013-05-03 17:52:00,
2013-05-03 13:01:00,52.0,50.0,29.93,SE,132,2.0,13.0,94,0.00,,,0.64,,2013-05-03 18:01:00,
2013-05-03 13:12:00,52.0,50.0,29.93,SE,132,2.0,13.0,94,0.00,,,0.64,,2013-05-03 18:12:00,
2013-05-03 13:21:00,53.0,51.0,29.93,ENE,71,2.0,7.0,94,0.00,,,0.64,,2013-05-03 18:21:00,
2013-05-03 13:32:00,53.0,51.0,29.93,ESE,108,3.0,10.0,94,0.00,,,0.64,,2013-05-03 18:32:00,
2013-05-03 13:42:00,53.0,51.0,29.93,ESE,108,3.0,10.0,94,0.00,,,0.64,,2013-05-03 18:42:00,
2013-05-03 13:52:00,55.0,53.0,29.92,ESE,119,5.0,10.0,93,0.00,,,0.64,,2013-05-03 18:52:00,
2013-05-03 14:01:00,55.0,53.0,29.91,ESE,103,6.0,11.0,93,0.00,,,0.64,,2013-05-03 19:01:00,
2013-05-03 14:11:00,55.0,53.0,29.91,ESE,103,6.0,11.0,93,0.00,,,0.64,,2013-05-03 19:11:00,
2013-05-03 14:21:00,57.0,54.0,29.91,ESE,116,3.0,11.0,91,0.00,,,0.64,,2013-05-03 19:21:00,
2013-05-03 14:32:00,58.0,55.0,29.91,East,90,4.0,12.0,91,0.00,,,0.64,,2013-05-03 19:32:00,
2013-05-03 14:42:00,58.0,55.0,29.91,East,90,4.0,12.0,91,0.00,,,0.64,,2013-05-03 19:42:00,
2013-05-03 14:52:00,58.0,55.0,29.90,ENE,78,4.0,12.0,89,0.00,,,0.64,,2013-05-03 19:52:00,
2013-05-03 15:02:00,58.0,55.0,29.89,ESE,107,5.0,9.0,90,0.00,,,0.64,,2013-05-03 20:02:00,
2013-05-03 15:11:00,58.0,55.0,29.89,ESE,107,5.0,9.0,90,0.00,,,0.64,,2013-05-03 20:11:00,
2013-05-03 15:21:00,58.0,56.0,29.89,ESE,113,3.0,8.0,93,0.01,,,0.65,,2013-05-03 20:21:00,
2013-05-03 15:31:00,58.0,55.0,29.89,East,89,5.0,10.0,91,0.01,,,0.65,,2013-05-03 20:31:00,
2013-05-03 15:42:00,58.0,55.0,29.89,East,89,5.0,10.0,91,0.01,,,0.65,,2013-05-03 20:42:00,
2013-05-03 15:52:00,58.0,55.0,29.88,SE,144,4.0,10.0,91,0.01,,,0.65,,2013-05-03 20:52:00,
2013-05-03 16:01:00,58.0,55.0,29.88,East,94,6.0,11.0,90,0.01,,,0.65,,2013-05-03 21:01:00,
2013-05-03 16:11:00,58.0,55.0,29.88,East,94,6.0,11.0,90,0.01,,,0.65,,2013-05-03 21:11:00,
2013-05-03 16:21:00,58.0,55.0,29.88,South,171,6.0,9.0,90,0.00,,,0.65,,2013-05-03 21:21:00,
2013-05-03 16:33:00,59.0,56.0,29.87,SE,130,4.0,10.0,89,0.00,,,0.65,,2013-05-03 21:33:00,
2013-05-03 16:42:00,59.0,56.0,29.87,SE,130,4.0,10.0,89,0.00,,,0.65,,2013-05-03 21:42:00,
2013-05-03 16:53:00,59.0,56.0,29.88,ESE,121,3.0,7.0,89,0.00,,,0.65,,2013-05-03 21:53:00,
2013-05-03 17:02:00,59.0,56.0,29.88,SE,131,4.0,12.0,89,0.00,,,0.65,,2013-05-03 22:02:00,
2013-05-03 17:12:00,59.0,56.0,29.88,SE,131,4.0,12.0,89,0.00,,,0.65,,2013-05-03 22:12:00,
2013-05-03 17:22:00,59.0,56.0,29.87,ENE,70,3.0,7.0,89,0.00,,,0.65,,2013-05-03 22:22:00,
2013-05-03 17:32:00,60.0,57.0,29.87,SE,132,2.0,9.0,89,0.00,,,0.65,,2013-05-03 22:32:00,
2013-05-03 17:42:00,60.0,57.0,29.87,SE,132,2.0,9.0,89,0.00,,,0.65,,2013-05-03 22:42:00,
2013-05-03 17:52:00,60.0,56.0,29.86,ENE,75,2.0,6.0,88,0.00,,,0.65,,2013-05-03 22:52:00,
2013-05-03 18:02:00,60.0,56.0,29.86,ESE,111,3.0,7.0,88,0.00,,,0.65,,2013-05-03 23:02:00,
2013-05-03 18:11:00,60.0,56.0,29.86,ESE,111,3.0,7.0,88,0.00,,,0.65,,2013-05-03 23:11:00,
2013-05-03 18:21:00,60.0,56.0,29.86,NNE,12,2.0,8.0,88,0.00,,,0.65,,2013-05-03 23:21:00,
2013-05-03 18:31:00,60.0,56.0,29.85,NNE,25,2.0,8.0,88,0.00,,,0.65,,2013-05-03 23:31:00,
2013-05-03 18:41:00,60.0,56.0,29.85,NNE,25,2.0,8.0,88,0.00,,,0.65,,2013-05-03 23:41:00,
2013-05-03 18:52:00,59.0,55.0,29.85,NNE,30,4.0,12.0,88,0.00,,,0.65,,2013-05-03 23:52:00,
2013-05-03 19:01:00,59.0,55.0,29.85,NE,36,5.0,12.0,88,0.00,,,0.65,,2013-05-04 00:01:00,
2013-05-03 19:11:00,59.0,55.0,29.85,NE,36,5.0,12.0,88,0.00,,,0.65,,2013-05-04 00:11:00,
2013-05-03 19:23:00,59.0,55.0,29.85,ENE,65,5.0,12.0,88,0.00,,,0.65,,2013-05-04 00:23:00,
2013-05-03 19:31:00,58.0,54.0,29.85,ESE,109,3.0,11.0,88,0.00,,,0.65,,2013-05-04 00:31:00,
2013-05-03 19:41:00,58.0,54.0,29.85,ESE,109,3.0,11.0,88,0.00,,,0.65,,2013-05-04 00:41:00,
2013-05-03 19:52:00,58.0,54.0,29.86,ENE,69,3.0,14.0,87,0.00,,,0.65,,2013-05-04 00:52:00,
2013-05-03 20:01:00,57.0,53.0,29.86,ENE,62,5.0,12.0,87,0.00,,,0.65,,2013-05-04 01:01:00,
2013-05-03 20:11:00,57.0,53.0,29.86,ENE,62,5.0,12.0,87,0.00,,,0.65,,2013-05-04 01:11:00,
2013-05-03 20:21:00,56.0,52.0,29.86,East,86,5.0,14.0,88,0.00,,,0.65,,2013-05-04 01:21:00,
2013-05-03 20:31:00,55.0,52.0,29.86,NE,39,2.0,11.0,88,0.00,,,0.65,,2013-05-04 01:31:00,
2013-05-03 20:41:00,55.0,52.0,29.86,NE,39,2.0,11.0,88,0.00,,,0.65,,2013-05-04 01:41:00,
2013-05-03 20:52:00,55.0,52.0,29.86,NE,46,4.0,9.0,88,0.00,,,0.65,,2013-05-04 01:52:00,
2013-05-03 21:02:00,54.0,51.0,29.87,ENE,69,2.0,8.0,89,0.00,,,0.65,,2013-05-04 02:02:00,
2013-05-03 21:11:00,54.0,51.0,29.87,ENE,69,2.0,8.0,89,0.00,,,0.65,,2013-05-04 02:11:00,
2013-05-03 21:21:00,54.0,51.0,29.87,NE,53,3.0,8.0,89,0.00,,,0.65,,2013-05-04 02:21:00,
2013-05-03 21:32:00,53.0,50.0,29.87,NE,43,3.0,13.0,89,0.00,,,0.61,,2013-05-04 02:32:00,
2013-05-03 21:41:00,53.0,50.0,29.87,NE,43,3.0,13.0,89,0.00,,,0.61,,2013-05-04 02:41:00,
2013-05-03 21:52:00,53.0,50.0,29.88,East,91,3.0,11.0,88,0.00,,,0.61,,2013-05-04 02:52:00,
2013-05-03 22:02:00,53.0,50.0,29.87,SE,135,1.0,11.0,89,0.00,,,0.61,,2013-05-04 03:02:00,
2013-05-03 22:11:00,53.0,50.0,29.87,SE,135,1.0,11.0,89,0.00,,,0.61,,2013-05-04 03:11:00,
2013-05-03 22:22:00,53.0,50.0,29.88,ENE,78,2.0,8.0,89,0.00,,,0.61,,2013-05-04 03:22:00,
2013-05-03 22:33:00,53.0,50.0,29.88,ESE,113,2.0,12.0,88,0.00,,,0.39,,2013-05-04 03:33:00,
2013-05-03 22:43:00,53.0,50.0,29.88,ESE,113,2.0,12.0,88,0.00,,,0.39,,2013-05-04 03:43:00,
2013-05-03 22:53:00,53.0,50.0,29.87,ESE,120,4.0,11.0,89,0.00,,,0.39,,2013-05-04 03:53:00,
2013-05-03 23:02:00,53.0,50.0,29.87,ENE,71,2.0,9.0,89,0.00,,,0.39,,2013-05-04 04:02:00,
2013-05-03 23:12:00,53.0,50.0,29.87,ENE,71,2.0,9.0,89,0.00,,,0.39,,2013-05-04 04:12:00,
2013-05-03 23:22:00,53.0,50.0,29.87,East,94,0.0,9.0,89,0.00,,,0.39,,2013-05-04 04:22:00,
2013-05-03 23:32:00,53.0,50.0,29.88,ESE,122,1.0,8.0,89,0.00,,,0.21,,2013-05-04 04:32:00,
2013-05-03 23:42:00,53.0,50.0,29.88,ESE,122,1.0,8.0,89,0.00,,,0.21,,2013-05-04 04:42:00,
2013-05-03 23:52:00,53.0,50.0,29.89,SE,141,1.0,9.0,90,0.00,,,0.21,,2013-05-04 04:52:00,